2020-02-14 00:08:08 r, 00.00m,0000562268Hz,0000000000c,0000000.000s, 009.6C,00002195
2020-02-14 00:18:08 r, 00.00m,0000562257Hz,0000000000c,0000000.000s, 009.6C,00002195
2020-02-14 00:28:08 r, 00.00m,0000562226Hz,0000000000c,0000000.000s, 009.3C,00002195
2020-02-14 00:38:08 r, 00.00m,0000562292Hz,0000000000c,0000000.000s, 009.3C,00002195
2020-02-14 00:48:08 r, 00.00m,0000562134Hz,0000000000c,0000000.000s, 009.0C,00002195
2020-02-14 00:58:08 r, 00.00m,0000562058Hz,0000000000c,0000000.000s, 009.0C,00002195
2020-02-14 01:08:08 r, 00.00m,0000562076Hz,0000000000c,0000000.000s, 008.7C,00002195
2020-02-14 01:18:08 r, 00.00m,0000562091Hz,0000000000c,0000000.000s, 008.7C,00002195
2020-02-14 01:28:08 r, 00.00m,0000562037Hz,0000000000c,0000000.000s, 008.7C,00002195
2020-02-14 01:38:08 r, 00.00m,0000562011Hz,0000000000c,0000000.000s, 008.3C,00002195
2020-02-14 01:48:08 r, 00.00m,0000561973Hz,0000000000c,0000000.000s, 008.3C,00002195
2020-02-14 01:58:08 r, 00.00m,0000561926Hz,0000000000c,0000000.000s, 008.3C,00002195
2020-02-14 02:08:08 r, 00.00m,0000454488Hz,0000000000c,0000000.000s, 008.3C,00002195
2020-02-14 02:18:08 r, 06.05m,0000338182Hz,0000000000c,0000000.000s, 008.3C,00002195
2020-02-14 02:28:08 r, 06.47m,0000228586Hz,0000000000c,0000000.000s, 008.3C,00002195
2020-02-14 02:38:08 r, 07.34m,0000102754Hz,0000000000c,0000000.000s, 008.3C,00002195
2020-02-14 02:48:08 r, 08.31m,0000042154Hz,0000000000c,0000000.000s, 008.3C,00002195
2020-02-14 02:58:08 r, 09.66m,0000012202Hz,0000000000c,0000000.000s, 008.3C,00002195
2020-02-14 03:08:08 r, 11.41m,0000002437Hz,0000000000c,0000000.000s, 008.7C,00002195
2020-02-14 03:18:08 r, 13.40m,0000000389Hz,0000000000c,0000000.000s, 008.3C,00002195
2020-02-14 03:28:08 r, 14.84m,0000000104Hz,0000004490c,0000000.010s, 008.7C,00002195
2020-02-14 03:38:08 r, 15.61m,0000000050Hz,0000009154c,0000000.020s, 008.7C,00002195
2020-02-14 03:48:08 r, 15.99m,0000000035Hz,0000012913c,0000000.028s, 008.7C,00002195
2020-02-14 03:58:08 r, 16.01m,0000000035Hz,0000013168c,0000000.029s, 008.7C,00002195
2020-02-14 04:08:08 r, 16.25m,0000000028Hz,0000016377c,0000000.036s, 008.7C,00002195
2020-02-14 04:18:08 r, 16.63m,0000000020Hz,0000023305c,0000000.051s, 009.0C,00002195
2020-02-14 04:28:08 r, 17.30m,0000000011Hz,0000043230c,0000000.094s, 009.0C,00002195
2020-02-14 04:38:08 r, 17.48m,0000000009Hz,0000050802c,0000000.110s, 009.0C,00002195
2020-02-14 04:48:08 r, 17.45m,0000000009Hz,0000049232c,0000000.107s, 009.0C,00002195
2020-02-14 04:58:08 r, 17.11m,0000000013Hz,0000036524c,0000000.079s, 009.0C,00002195
2020-02-14 05:08:08 r, 16.29m,0000000027Hz,0000017276c,0000000.037s, 009.0C,00002195
2020-02-14 05:18:08 r, 16.29m,0000000027Hz,0000017264c,0000000.037s, 009.3C,00002195
2020-02-14 05:28:08 r, 16.56m,0000000021Hz,0000021962c,0000000.048s, 009.3C,00002195
2020-02-14 05:38:08 r, 15.94m,0000000037Hz,0000012444c,0000000.027s, 009.6C,00002195
2020-02-14 05:48:08 r, 15.75m,0000000044Hz,0000010412c,0000000.023s, 009.6C,00002195
2020-02-14 05:58:08 r, 15.20m,0000000073Hz,0000006248c,0000000.014s, 009.9C,00002195
2020-02-14 06:08:08 r, 15.67m,0000000048Hz,0000009676c,0000000.021s, 009.9C,00002195
2020-02-14 06:18:08 r, 15.25m,0000000070Hz,0000006588c,0000000.014s, 010.3C,00002195
2020-02-14 06:28:08 r, 15.18m,0000000076Hz,0000006122c,0000000.013s, 010.3C,00002195
2020-02-14 06:38:08 r, 15.24m,0000000071Hz,0000006465c,0000000.014s, 010.3C,00002195
2020-02-14 06:48:08 r, 15.04m,0000000086Hz,0000005387c,0000000.012s, 010.6C,00002195
2020-02-14 06:58:08 r, 15.04m,0000000085Hz,0000005426c,0000000.012s, 010.9C,00002195
2020-02-14 07:08:08 r, 15.10m,0000000080Hz,0000005716c,0000000.012s, 010.9C,00002195
2020-02-14 07:18:08 r, 14.84m,0000000103Hz,0000004481c,0000000.010s, 011.2C,00002195
2020-02-14 07:28:08 r, 14.61m,0000000127Hz,0000003634c,0000000.008s, 011.6C,00002195
2020-02-14 07:38:08 r, 14.93m,0000000094Hz,0000004882c,0000000.011s, 011.6C,00002195
2020-02-14 07:48:08 r, 15.24m,0000000071Hz,0000006512c,0000000.014s, 011.6C,00002195
2020-02-14 07:58:08 r, 15.75m,0000000044Hz,0000010384c,0000000.023s, 011.6C,00002195
2020-02-14 08:08:08 r, 15.20m,0000000073Hz,0000006280c,0000000.014s, 011.6C,00002195
2020-02-14 08:18:08 r, 15.41m,0000000062Hz,0000007554c,0000000.016s, 011.6C,00002195
2020-02-14 08:28:08 r, 14.98m,0000000089Hz,0000005126c,0000000.011s, 011.6C,00002195
2020-02-14 08:38:08 r, 15.54m,0000000054Hz,0000008587c,0000000.019s, 011.6C,00002195
2020-02-14 08:48:08 r, 16.02m,0000000035Hz,0000013257c,0000000.029s, 011.6C,00002195
2020-02-14 08:58:08 r, 15.60m,0000000051Hz,0000009087c,0000000.020s, 011.9C,00002195
2020-02-14 09:08:08 r, 15.40m,0000000061Hz,0000007524c,0000000.016s, 011.9C,00002195
2020-02-14 09:18:08 r, 14.76m,0000000111Hz,0000004189c,0000000.009s, 011.9C,00002195
2020-02-14 09:28:08 r, 14.58m,0000000131Hz,0000000000c,0000000.000s, 012.2C,00002195
2020-02-14 09:38:08 r, 14.55m,0000000135Hz,0000000000c,0000000.000s, 012.2C,00002195
2020-02-14 09:48:08 r, 14.90m,0000000096Hz,0000004784c,0000000.010s, 012.2C,00002195
2020-02-14 09:58:08 r, 14.83m,0000000104Hz,0000004462c,0000000.010s, 012.2C,00002195
2020-02-14 10:08:08 r, 14.68m,0000000118Hz,0000003875c,0000000.008s, 012.2C,00002195
2020-02-14 10:18:08 r, 14.46m,0000000146Hz,0000000000c,0000000.000s, 012.2C,00002195
2020-02-14 10:28:08 r, 14.30m,0000000169Hz,0000000000c,0000000.000s, 012.2C,00002195
2020-02-14 10:38:08 r, 14.33m,0000000164Hz,0000000000c,0000000.000s, 012.2C,00002195
2020-02-14 10:48:08 r, 14.31m,0000000168Hz,0000000000c,0000000.000s, 012.2C,00002195
2020-02-14 10:58:08 r, 14.25m,0000000177Hz,0000000000c,0000000.000s, 012.2C,00002195
2020-02-14 11:08:08 r, 14.17m,0000000190Hz,0000000000c,0000000.000s, 012.2C,00002195
2020-02-14 11:18:08 r, 14.12m,0000000199Hz,0000000000c,0000000.000s, 012.2C,00002195
2020-02-14 11:28:08 r, 14.12m,0000000200Hz,0000000000c,0000000.000s, 011.9C,00002195
2020-02-14 11:38:08 r, 14.07m,0000000209Hz,0000000000c,0000000.000s, 011.9C,00002195
2020-02-14 11:48:08 r, 14.12m,0000000199Hz,0000000000c,0000000.000s, 011.9C,00002195
2020-02-14 11:58:08 r, 14.26m,0000000175Hz,0000000000c,0000000.000s, 011.6C,00002195
2020-02-14 12:08:08 r, 14.37m,0000000159Hz,0000000000c,0000000.000s, 011.9C,00002195
2020-02-14 12:18:08 r, 14.41m,0000000154Hz,0000000000c,0000000.000s, 011.6C,00002195
2020-02-14 12:28:08 r, 14.69m,0000000118Hz,0000003912c,0000000.008s, 011.6C,00002195
2020-02-14 12:38:08 r, 14.68m,0000000119Hz,0000003886c,0000000.008s, 011.6C,00002195
2020-02-14 12:48:08 r, 14.65m,0000000121Hz,0000003775c,0000000.008s, 011.6C,00002195
2020-02-14 12:58:08 r, 14.48m,0000000144Hz,0000000000c,0000000.000s, 011.6C,00002195
2020-02-14 13:08:08 r, 14.61m,0000000127Hz,0000003639c,0000000.008s, 011.6C,00002195
2020-02-14 13:18:08 r, 14.29m,0000000171Hz,0000000000c,0000000.000s, 011.9C,00002195
2020-02-14 13:28:08 r, 14.27m,0000000174Hz,0000000000c,0000000.000s, 011.9C,00002195
2020-02-14 13:38:08 r, 14.37m,0000000159Hz,0000000000c,0000000.000s, 012.2C,00002195
2020-02-14 13:48:08 r, 14.32m,0000000167Hz,0000000000c,0000000.000s, 012.2C,00002195
2020-02-14 13:58:08 r, 14.11m,0000000202Hz,0000000000c,0000000.000s, 012.2C,00002195
2020-02-14 14:08:08 r, 14.21m,0000000183Hz,0000000000c,0000000.000s, 012.5C,00002195
2020-02-14 14:18:08 r, 14.23m,0000000180Hz,0000000000c,0000000.000s, 012.5C,00002195
2020-02-14 14:28:08 r, 13.97m,0000000229Hz,0000000000c,0000000.000s, 012.5C,00002195
2020-02-14 14:38:08 r, 14.41m,0000000154Hz,0000000000c,0000000.000s, 012.5C,00002195
2020-02-14 14:48:08 r, 14.11m,0000000201Hz,0000000000c,0000000.000s, 012.5C,00002195
2020-02-14 14:58:08 r, 14.23m,0000000180Hz,0000000000c,0000000.000s, 012.5C,00002195
2020-02-14 15:08:08 r, 14.04m,0000000215Hz,0000000000c,0000000.000s, 012.5C,00002195
2020-02-14 15:18:08 r, 14.11m,0000000201Hz,0000000000c,0000000.000s, 012.5C,00002195
2020-02-14 15:28:08 r, 14.32m,0000000166Hz,0000000000c,0000000.000s, 012.5C,00002195
2020-02-14 15:38:08 r, 14.66m,0000000121Hz,0000003809c,0000000.008s, 012.5C,00002195
2020-02-14 15:48:08 r, 14.81m,0000000106Hz,0000004374c,0000000.009s, 012.5C,00002195
2020-02-14 15:58:08 r, 14.90m,0000000096Hz,0000004776c,0000000.010s, 012.2C,00002195
2020-02-14 16:08:08 r, 12.42m,0000000958Hz,0000000000c,0000000.000s, 012.2C,00002195
2020-02-14 16:18:08 r, 10.46m,0000005854Hz,0000000000c,0000000.000s, 012.2C,00002195
2020-02-14 16:28:08 r, 08.77m,0000027590Hz,0000000000c,0000000.000s, 011.9C,00002195
2020-02-14 16:38:08 r, 07.61m,0000080582Hz,0000000000c,0000000.000s, 011.9C,00002195
2020-02-14 16:48:08 r, 06.76m,0000175254Hz,0000000000c,0000000.000s, 011.9C,00002195
2020-02-14 16:58:08 r, 06.13m,0000316774Hz,0000000000c,0000000.000s, 011.9C,00002195
2020-02-14 17:08:08 r, 00.00m,0000494382Hz,0000000000c,0000000.000s, 011.9C,00002195
2020-02-14 17:18:08 r, 00.00m,0000562478Hz,0000000000c,0000000.000s, 011.9C,00002195
2020-02-14 17:28:08 r, 00.00m,0000562408Hz,0000000000c,0000000.000s, 011.9C,00002195
2020-02-14 17:38:08 r, 00.00m,0000562436Hz,0000000000c,0000000.000s, 011.6C,00002195
2020-02-14 17:48:08 r, 00.00m,0000562332Hz,0000000000c,0000000.000s, 011.6C,00002195
2020-02-14 17:58:08 r, 00.00m,0000562441Hz,0000000000c,0000000.000s, 011.9C,00002195
2020-02-14 18:08:08 r, 00.00m,0000562524Hz,0000000000c,0000000.000s, 012.2C,00002195
2020-02-14 18:18:08 r, 00.00m,0000562545Hz,0000000000c,0000000.000s, 012.5C,00002195
2020-02-14 18:28:08 r, 00.00m,0000562645Hz,0000000000c,0000000.000s, 013.2C,00002195
2020-02-14 18:38:08 r, 00.00m,0000562743Hz,0000000000c,0000000.000s, 014.1C,00002195
2020-02-14 18:48:08 r, 00.00m,0000562874Hz,0000000000c,0000000.000s, 014.1C,00002195
2020-02-14 18:58:08 r, 00.00m,0000562840Hz,0000000000c,0000000.000s, 014.1C,00002195
2020-02-14 19:08:08 r, 00.00m,0000562807Hz,0000000000c,0000000.000s, 013.5C,00002195
2020-02-14 19:18:08 r, 00.00m,0000562628Hz,0000000000c,0000000.000s, 012.8C,00002195
2020-02-14 19:28:08 r, 00.00m,0000562740Hz,0000000000c,0000000.000s, 012.8C,00002195
2020-02-14 19:38:08 r, 00.00m,0000562659Hz,0000000000c,0000000.000s, 012.2C,00002195
2020-02-14 19:48:08 r, 00.00m,0000562593Hz,0000000000c,0000000.000s, 012.2C,00002195
2020-02-14 19:58:08 r, 00.00m,0000562667Hz,0000000000c,0000000.000s, 012.2C,00002195
2020-02-14 20:08:08 r, 00.00m,0000562710Hz,0000000000c,0000000.000s, 012.5C,00002195
2020-02-14 20:18:08 r, 00.00m,0000562633Hz,0000000000c,0000000.000s, 012.2C,00002195
2020-02-14 20:28:08 r, 00.00m,0000562541Hz,0000000000c,0000000.000s, 011.9C,00002195
2020-02-14 20:38:08 r, 00.00m,0000562543Hz,0000000000c,0000000.000s, 011.9C,00002195
2020-02-14 20:48:08 r, 00.00m,0000562579Hz,0000000000c,0000000.000s, 011.6C,00002195
2020-02-14 20:58:08 r, 00.00m,0000562479Hz,0000000000c,0000000.000s, 011.6C,00002195
2020-02-14 21:08:08 r, 00.00m,0000562432Hz,0000000000c,0000000.000s, 011.2C,00002195
2020-02-14 21:18:08 r, 00.00m,0000562562Hz,0000000000c,0000000.000s, 011.2C,00002195
2020-02-14 21:28:08 r, 00.00m,0000562499Hz,0000000000c,0000000.000s, 011.2C,00002195
2020-02-14 21:38:08 r, 00.00m,0000562605Hz,0000000000c,0000000.000s, 010.9C,00002195
2020-02-14 21:48:08 r, 00.00m,0000562608Hz,0000000000c,0000000.000s, 010.9C,00002195
2020-02-14 21:58:08 r, 00.00m,0000562604Hz,0000000000c,0000000.000s, 010.9C,00002195
2020-02-14 22:08:08 r, 00.00m,0000562635Hz,0000000000c,0000000.000s, 010.9C,00002195
2020-02-14 22:18:08 r, 00.00m,0000562563Hz,0000000000c,0000000.000s, 010.9C,00002195
2020-02-14 22:28:08 r, 00.00m,0000562536Hz,0000000000c,0000000.000s, 010.6C,00002195
2020-02-14 22:38:08 r, 00.00m,0000562618Hz,0000000000c,0000000.000s, 010.6C,00002195
2020-02-14 22:48:08 r, 00.00m,0000562513Hz,0000000000c,0000000.000s, 010.6C,00002195
2020-02-14 22:58:08 r, 00.00m,0000562320Hz,0000000000c,0000000.000s, 009.9C,00002195
2020-02-14 23:08:08 r, 00.00m,0000562221Hz,0000000000c,0000000.000s, 009.6C,00002195
2020-02-14 23:18:08 r, 00.00m,0000562208Hz,0000000000c,0000000.000s, 009.3C,00002195
2020-02-14 23:28:08 r, 00.00m,0000562279Hz,0000000000c,0000000.000s, 009.3C,00002195
2020-02-14 23:38:08 r, 00.00m,0000562216Hz,0000000000c,0000000.000s, 009.6C,00002195
2020-02-14 23:48:08 r, 00.00m,0000562131Hz,0000000000c,0000000.000s, 009.0C,00002195
2020-02-14 23:58:08 r, 00.00m,0000562217Hz,0000000000c,0000000.000s, 009.3C,00002195
